| time (UTC) | temp F | wind direction | speed knots | gust knots | rain 1hr in | rain 24hr in | rain mn in | humidity % | barometer mb |
| 20260505083749 | 75 | 0.0 | 0.0 | 0.00 | 0.00 | 0.00 | 10 | -206.4 | |
| 20260505082749 | 74 | 0.0 | 0.0 | 0.00 | 0.00 | 0.00 | 10 | -206.3 | |
| 20260505081749 | 72 | 0.0 | 0.0 | 0.00 | 0.00 | 0.00 | 10 | -205.9 | |
| 20260505080749 | 72 | 0.0 | 0.0 | 0.00 | 0.00 | 0.00 | 10 | -206.1 | |
| 20260505075749 | 71 | 0.0 | 0.0 | 0.00 | 0.00 | 0.00 | 10 | -205.9 | |
| 20260505074749 | 70 | 0.0 | 0.0 | 0.00 | 0.00 | 0.00 | 10 | -205.7 | |
| 20260505073749 | 68 | 0.0 | 0.0 | 0.00 | 0.00 | 0.00 | 10 | -205.3 | |
| 20260505072749 | 67 | 0.0 | 0.0 | 0.00 | 0.00 | 0.00 | 10 | -205.1 | |
| 20260505071749 | 66 | 0.0 | 0.0 | 0.00 | 0.00 | 0.00 | 10 | -205.0 | |
| 20260505070749 | 64 | 0.0 | 0.0 | 0.00 | 0.00 | 0.00 | 10 | -204.7 | |
| 20260505065749 | 63 | 0.0 | 0.0 | 0.00 | 0.00 | 0.00 | 10 | -204.5 | |
| 20260505064749 | 62 | 0.0 | 0.0 | 0.00 | 0.00 | 0.00 | 10 | -204.4 | |
| 20260505063749 | 61 | 0.0 | 0.0 | 0.00 | 0.00 | 0.00 | 10 | -204.2 | |
| 20260505062749 | 60 | 0.0 | 0.0 | 0.00 | 0.00 | 0.00 | 10 | -204.0 | |
| 20260505061749 | 59 | 0.0 | 0.0 | 0.00 | 0.00 | 0.00 | 10 | -204.0 | |
| 20260505060749 | 58 | 0.0 | 0.0 | 0.00 | 0.00 | 0.00 | 10 | -203.8 | |
| 20260505055749 | 57 | 0.0 | 0.0 | 0.00 | 0.00 | 0.00 | 10 | -203.7 | |
| 20260505054748 | 57 | 0.0 | 0.0 | 0.00 | 0.00 | 0.00 | 10 | -203.6 | |
| 20260505053748 | 56 | 0.0 | 0.0 | 0.00 | 0.00 | 0.00 | 10 | -203.5 | |
| 20260505052748 | 55 | 0.0 | 0.0 | 0.00 | 0.00 | 0.00 | 10 | -203.3 | |
| 20260505051748 | 53 | 0.0 | 0.0 | 0.00 | 0.00 | 0.00 | 10 | -203.0 | |
| 20260505050748 | 52 | 0.0 | 0.0 | 0.00 | 0.00 | 0.00 | 10 | -202.8 | |
| 20260505041749 | 49 | 0.0 | 0.0 | 0.00 | 0.00 | 0.00 | 10 | -202.4 | |
| 20260504192747 | 62 | 0.0 | 0.0 | 0.00 | 0.00 | 0.00 | 10 | -204.4 | |
| 20260504183910 | 67 | 0.0 | 0.0 | 0.00 | 0.00 | 0.00 | 10 | -205.2 | |
| 20260504182910 | 68 | 0.0 | 0.0 | 0.00 | 0.00 | 0.00 | 10 | -205.4 | |
| 20260504181912 | 69 | 0.0 | 0.0 | 0.00 | 0.00 | 0.00 | 10 | -205.4 | |
| 20260504180910 | 71 | 0.0 | 0.0 | 0.00 | 0.00 | 0.00 | 10 | -205.9 | |
| 20260504175909 | 73 | 0.0 | 0.0 | 0.00 | 0.00 | 0.00 | 10 | -206.1 | |
| 20260504174909 | 73 | 0.0 | 0.0 | 0.00 | 0.00 | 0.00 | 10 | -206.2 | |
| 20260504173909 | 74 | 0.0 | 0.0 | 0.00 | 0.00 | 0.00 | 10 | -206.4 | |
| 20260504172909 | 76 | 0.0 | 0.0 | 0.00 | 0.00 | 0.00 | 90 | -206.6 | |
| 20260504171909 | 76 | 0.0 | 0.0 | 0.00 | 0.00 | 0.00 | 83 | -206.6 | |
| 20260504170909 | 77 | 0.0 | 0.0 | 0.00 | 0.00 | 0.00 | 79 | -206.7 | |
| 20260504150909 | 86 | 0.0 | 0.0 | 0.00 | 0.00 | 0.00 | 37 | -208.2 | |
| 20260504140909 | 89 | 0.0 | 0.0 | 0.00 | 0.00 | 0.00 | 33 | -208.7 |